Hourly Data Report for October 26, 2003

SHERBROOKE A
QUEBEC

45°26'00.000" N
71°41'00.000" W
241.40 m
7028124
71610
YSC

Download Data

Hourly Data (October 2003)
Hourly Data Report for October 26, 2003
TIME
LST
Temp Definition
°C
Dew Point Definition
°C
Rel Hum Definition
%
Precip. Amount Definition
mm

Wind Dir Definition
10's deg

Wind Spd Definition
km/h
Visibility Definition
km
Stn Press Definition
kPa
Hmdx Definition


Wind Chill Definition


Weather Definition


00:00 7.8 1.2 63   19 4 15.0 99.53      
01:00 5.9 1.6 74     0 15.0 99.54      
02:00 5.7 2.1 78   15 4 15.0 99.49      
03:00 7.1 2.6 73   17 6 15.0 99.47      
04:00 6.6 2.6 76   7 4 15.0 99.43      
05:00 6.7 3.2 78   8 4 15.0 99.38     Rain
06:00 6.7 4.2 84     0 15.0 99.36     Rain
07:00 5.8 5.0 95     0 6.4 99.40     Rain
08:00 6.0 5.4 96   5 4 19.3 99.25     Cloudy
09:00 7.2 6.4 95   4 4 19.3 99.13     Cloudy
10:00 7.8 7.0 95   6 6 24.1 99.00     Cloudy
11:00 8.6 7.5 93   5 6 24.1 98.87     Cloudy
12:00 10.5 8.7 89   10 6 24.1 98.71     Cloudy
13:00 14.1 11.0 82   19 15 24.1 98.60     Cloudy
14:00 15.2 11.5 79   18 19 24.1 98.49     Mostly Cloudy
15:00 15.7 11.7 77   19 19 24.1 98.44     Mostly Cloudy
16:00 15.6 11.7 78   19 15 19.3 98.40     Mostly Cloudy
17:00 15.3 12.3 82   19 19 16.1 98.33     Rain Showers
18:00 14.6 12.4 87   19 15 12.9 98.31     Rain
19:00 11.8 10.9 94   28 43 4.8 98.43     Heavy Rain
20:00 10.7 10.2 97   21 6 2.1 98.48     Moderate Rain
21:00 10.4 10.1 98   23 6 3.2 98.51     Moderate Rain
22:00 10.4 10.0 97   25 6 6.4 98.53     Moderate Rain
23:00 10.2 9.8 97   25 7 6.4 98.57     Rain

Notes on Data Quality.

Legend

  • E = Estimated
  • M = Missing
  • NA = Not Available*
  • [empty] = Indicates an unobserved value
Date modified: